Tracking 31027 objects as of 19-Jul-2025
HD Live streaming from Space Station
objects crossing your sky now

STARLINK-2462

Track STARLINK-2462 now!
10-day predictions
STARLINK-2462 is classified as:


NORAD ID: 48121
Int'l Code: 2021-027AF
Perigee: 553.2 km
Apogee: 555.5 km
Inclination: 53.1 °
Period: 95.6 minutes
Semi major axis: 6925 km
RCS: Unknown
Launch date: April 7, 2021
Source: United States (US)
Launch site: AIR FORCE EASTERN TEST RANGE (AFETR)
Your satellite tracking list
Your tracking list is empty




NASA's NSSDC Master Catalog

Two Line Element Set (TLE):
1 48121U 21027AF  25199.50451941 -.00000451  00000-0 -11383-4 0  9995
2 48121  53.0570 132.9199 0001676  98.6363 261.4816 15.06391967237251
Source of the keplerian elements: AFSPC